CW9792 Weather Reports


time (UTC)temp
F
wind
direction
speed
knots
gust
knots
rain 1hr
in
rain 24hr
in
rain mn
in
humidity
%
barometer
mb
20260905154548 85 61 0.0 0.0 0.00 0.00 0.00 52 1013.6
20260905154047 84 78 0.0 0.0 0.00 0.00 0.00 55 1013.7
20260905153547 84 65 0.0 0.9 0.00 0.00 0.00 56 1013.8
20260905153046 84 117 0.0 0.9 0.00 0.00 0.00 55 1013.9
20260905152546 84 129 0.0 0.0 0.00 0.00 0.00 55 1013.7
20260905152046 83 142 0.0 0.0 0.00 0.00 0.00 56 1013.8
20260905151546 83 105 0.0 0.0 0.00 0.00 0.00 56 1013.7
20260905151045 82 111 0.0 0.0 0.00 0.00 0.00 58 1013.8
20260905150545 81 122 0.0 0.9 0.00 0.00 0.00 57 1013.7
20260905150045 81 86 0.0 0.9 0.00 0.00 0.00 58 1013.6
20260905145545 81 73 0.0 0.0 0.00 0.00 0.00 58 1013.8
20260905145045 81 111 0.0 0.0 0.00 0.00 0.00 58 1013.9
20260905144545 81 93 0.0 0.0 0.00 0.00 0.00 58 1013.7
20260905144044 81 103 0.0 0.0 0.00 0.00 0.00 57 1013.7
20260905143545 81 41 0.0 0.0 0.00 0.00 0.00 57 1013.8
20260905143044 81 109 0.0 0.9 0.00 0.00 0.00 57 1013.8
20260905142548 81 79 0.0 0.9 0.00 0.00 0.00 58 1013.7
20260905142044 81 54 0.0 0.9 0.00 0.00 0.00 58 1013.8
20260905141544 81 44 0.0 0.9 0.00 0.00 0.00 57 1013.9
20260905141045 82 111 0.0 0.0 0.00 0.00 0.00 57 1014.0
20260905140543 82 123 0.0 0.9 0.00 0.00 0.00 57 1013.7
20260905140044 83 94 0.0 0.9 0.00 0.00 0.00 56 1014.1
20260905135542 84 63 0.0 0.0 0.00 0.00 0.00 57 1014.0
20260905135040 84 69 0.0 0.0 0.00 0.00 0.00 56 1013.6
20260905134540 83 124 0.0 0.0 0.00 0.00 0.00 57 1013.4
20260905134039 83 91 0.0 0.0 0.00 0.00 0.00 56 1013.4
20260905133538 82 77 0.0 0.0 0.00 0.00 0.00 57 1013.5
20260905133039 82 74 0.0 0.0 0.00 0.00 0.00 58 1013.4
20260905132535 81 59 0.0 0.0 0.00 0.00 0.00 57 1013.4
20260905132034 81 57 0.0 0.9 0.00 0.00 0.00 57 1013.6
20260905131533 81 46 0.0 0.0 0.00 0.00 0.00 58 1013.5
20260905131032 80 44 0.0 0.0 0.00 0.00 0.00 58 1013.5
20260905130530 80 32 0.0 0.0 0.00 0.00 0.00 59 1013.6
20260905130030 80 36 0.0 0.0 0.00 0.00 0.00 59 1013.6
20260905125533 79 37 0.0 0.0 0.00 0.00 0.00 59 1013.6
20260905125030 79 37 0.0 0.0 0.00 0.00 0.00 59 1013.6
20260905124527 79 194 0.0 0.0 0.00 0.00 0.00 61 1013.6
20260905124025 78 194 0.0 0.0 0.00 0.00 0.00 62 1013.5
20260905123524 78 194 0.0 0.0 0.00 0.00 0.00 63 1013.5
20260905123023 77 194 0.0 0.0 0.00 0.00 0.00 63 1013.3
20260905122523 76 194 0.0 0.0 0.00 0.00 0.00 64 1013.3
20260905122022 76 194 0.0 0.0 0.00 0.00 0.00 65 1013.4
20260905121522 75 193 0.0 0.0 0.00 0.00 0.00 65 1013.4
20260905121023 75 192 0.0 0.0 0.00 0.00 0.00 65 1013.3
20260905120522 75 192 0.0 0.0 0.00 0.00 0.00 65 1013.3
20260905120021 75 192 0.0 0.0 0.00 0.00 0.00 64 1013.3
20260905115524 74 192 0.0 0.0 0.00 0.00 0.00 64 1013.1
20260905115023 74 193 0.0 0.0 0.00 0.00 0.00 64 1013.0
20260905114520 74 193 0.0 0.0 0.00 0.00 0.00 64 1013.0
20260905114019 75 193 0.0 0.0 0.00 0.00 0.00 63 1013.0
20260905113524 75 193 0.0 0.0 0.00 0.00 0.00 63 1012.9
20260905113018 75 193 0.0 0.0 0.00 0.00 0.00 63 1012.8
20260905112517 75 193 0.0 0.0 0.00 0.00 0.00 62 1012.7
20260905112018 75 193 0.0 0.0 0.00 0.00 0.00 62 1012.7
20260905111519 75 193 0.0 0.0 0.00 0.00 0.00 62 1012.7
20260905111017 76 193 0.0 0.0 0.00 0.00 0.00 62 1012.5
20260905110518 76 193 0.0 0.0 0.00 0.00 0.00 61 1012.4
20260905110017 76 193 0.0 0.0 0.00 0.00 0.00 61 1012.4
20260905105517 76 193 0.0 0.0 0.00 0.00 0.00 60 1012.3
20260905105017 76 193 0.0 0.0 0.00 0.00 0.00 60 1012.2
20260905104516 77 192 0.0 0.0 0.00 0.00 0.00 60 1012.3
20260905104019 77 193 0.0 0.0 0.00 0.00 0.00 60 1012.2
20260905103520 77 193 0.0 0.0 0.00 0.00 0.00 59 1012.3
20260905103017 77 192 0.0 0.0 0.00 0.00 0.00 59 1012.3
20260905102515 77 193 0.0 0.0 0.00 0.00 0.00 59 1012.3
20260905102015 77 192 0.0 0.0 0.00 0.00 0.00 59 1012.2
20260905101515 77 193 0.0 0.0 0.00 0.00 0.00 59 1012.2
20260905101014 77 193 0.0 0.0 0.00 0.00 0.00 59 1012.1
20260905100514 77 193 0.0 0.0 0.00 0.00 0.00 60 1012.1
20260905100026 77 193 0.0 0.0 0.00 0.00 0.00 60 1012.1
20260905095512 77 184 0.0 0.0 0.00 0.00 0.00 61 1012.1
20260905095012 76 184 0.0 0.0 0.00 0.00 0.00 62 1012.0
20260905094518 76 184 0.0 0.0 0.00 0.00 0.00 62 1012.0
20260905094014 76 184 0.0 0.0 0.00 0.00 0.00 63 1011.9
20260905093513 75 184 0.0 0.0 0.00 0.00 0.00 63 1011.9
20260905093011 75 184 0.0 0.0 0.00 0.00 0.00 63 1011.9
20260905092513 75 184 0.0 0.0 0.00 0.00 0.00 64 1011.9
20260905092014 75 184 0.0 0.0 0.00 0.00 0.00 64 1011.8
20260905091512 75 184 0.0 0.0 0.00 0.00 0.00 64 1011.8
20260905091013 75 184 0.0 0.0 0.00 0.00 0.00 64 1011.8
20260905090510 75 184 0.0 0.0 0.00 0.00 0.00 64 1011.7
20260905090011 75 184 0.0 0.0 0.00 0.00 0.00 64 1011.7
20260905085510 75 184 0.0 0.0 0.00 0.00 0.00 63 1011.6
20260905085009 75 184 0.0 0.0 0.00 0.00 0.00 63 1011.6
20260905084510 75 184 0.0 0.0 0.00 0.00 0.00 63 1011.8
20260905084010 75 184 0.0 0.0 0.00 0.00 0.00 63 1011.7
20260905083510 75 184 0.0 0.0 0.00 0.00 0.00 63 1011.7
20260905083010 75 184 0.0 0.0 0.00 0.00 0.00 63 1011.8
20260905082509 75 184 0.0 0.0 0.00 0.00 0.00 63 1011.9
20260905082009 75 184 0.0 0.0 0.00 0.00 0.00 63 1011.8
20260905081509 76 184 0.0 0.0 0.00 0.00 0.00 63 1011.7
20260905081012 76 189 0.0 0.0 0.00 0.00 0.00 63 1011.7
20260905080508 75 202 0.0 0.0 0.00 0.00 0.00 63 1011.6
20260905080008 75 201 0.0 0.0 0.00 0.00 0.00 64 1011.5
20260905075509 75 177 0.0 0.0 0.00 0.00 0.00 64 1011.7
20260905075007 75 177 0.0 0.0 0.00 0.00 0.00 64 1011.7
20260905074507 75 177 0.0 0.0 0.00 0.00 0.00 64 1011.8
20260905074007 75 177 0.0 0.0 0.00 0.00 0.00 64 1011.9
20260905073506 75 177 0.0 0.0 0.00 0.00 0.00 64 1011.8
20260905073009 75 177 0.0 0.0 0.00 0.00 0.00 64 1011.8
20260905072507 75 177 0.0 0.0 0.00 0.00 0.00 64 1011.8
20260905072005 75 177 0.0 0.0 0.00 0.00 0.00 64 1011.9
20260905071504 75 175 0.0 0.0 0.00 0.00 0.00 65 1011.9
20260905071003 75 170 0.0 0.0 0.00 0.00 0.00 64 1012.0
20260905070503 75 170 0.0 0.0 0.00 0.00 0.00 64 1012.0
20260905070003 75 170 0.0 0.0 0.00 0.00 0.00 64 1012.0
20260905065503 75 170 0.0 0.0 0.00 0.00 0.00 64 1012.1
20260905065002 76 170 0.0 0.0 0.00 0.00 0.00 64 1012.2
20260905064619 76 170 0.0 0.0 0.00 0.00 0.00 64 1012.3
20260905064059 76 170 0.0 0.0 0.00 0.00 0.00 64 1012.3
20260905063559 76 170 0.0 0.0 0.00 0.00 0.00 64 1012.3
20260905063059 76 170 0.0 0.0 0.00 0.00 0.00 64 1012.4
20260905062557 76 170 0.0 0.0 0.00 0.00 0.00 64 1012.5
20260905062057 76 170 0.0 0.0 0.00 0.00 0.00 64 1012.5
20260905061604 76 170 0.0 0.0 0.00 0.00 0.00 64 1012.6
20260905061056 76 170 0.0 0.0 0.00 0.00 0.00 64 1012.6
20260905060600 76 170 0.0 0.0 0.00 0.00 0.00 64 1012.6
20260905060059 76 170 0.0 0.0 0.00 0.00 0.00 64 1012.6
20260905055555 76 170 0.0 0.0 0.00 0.00 0.00 64 1012.7
20260905055057 76 170 0.0 0.0 0.00 0.00 0.00 64 1012.6
20260905054703 76 170 0.0 0.0 0.00 0.00 0.00 64 1012.7
20260905054055 76 170 0.0 0.0 0.00 0.00 0.00 64 1012.7
20260905053555 76 170 0.0 0.0 0.00 0.00 0.00 64 1012.7
20260905053054 76 170 0.0 0.0 0.00 0.00 0.00 64 1012.7
20260905052553 76 170 0.0 0.0 0.00 0.00 0.00 64 1012.7
20260905052053 76 170 0.0 0.0 0.00 0.00 0.00 63 1012.7
20260905051553 76 170 0.0 0.0 0.00 0.00 0.00 63 1012.8
20260905051052 76 170 0.0 0.0 0.00 0.00 0.00 63 1012.7
20260905050552 76 170 0.0 0.0 0.00 0.00 0.00 63 1012.7
20260905050051 76 170 0.0 0.0 0.00 0.00 0.00 63 1012.8
20260905045552 76 170 0.0 0.0 0.00 0.00 0.00 63 1012.8
20260905045051 76 170 0.0 0.0 0.00 0.00 0.00 63 1012.8
20260905044604 77 170 0.0 0.0 0.00 0.00 0.00 63 1012.8
20260905044053 77 170 0.0 0.0 0.00 0.00 0.00 63 1012.8
20260905043550 77 170 0.0 0.0 0.00 0.00 0.00 63 1012.7
20260905043054 77 170 0.0 0.0 0.00 0.00 0.00 63 1012.7
20260905042549 77 170 0.0 0.0 0.00 0.00 0.00 63 1012.8
20260905042049 77 170 0.0 0.0 0.00 0.00 0.00 63 1012.8
20260905041549 77 170 0.0 0.0 0.00 0.00 0.00 63 1012.7
20260905041048 77 170 0.0 0.0 0.00 0.00 0.00 63 1012.8
20260905040548 77 170 0.0 0.0 0.00 0.00 0.00 63 1012.9
20260905040054 77 170 0.0 0.0 0.00 0.00 0.00 63 1012.9
20260905035547 77 170 0.0 0.0 0.00 0.00 0.00 63 1012.8
20260905035046 77 170 0.0 0.0 0.00 0.00 0.00 63 1013.0
20260905034559 77 170 0.0 0.0 0.00 0.00 0.00 63 1013.1
20260905034047 77 170 0.0 0.0 0.00 0.00 0.00 63 1013.1
20260905033550 77 170 0.0 0.0 0.00 0.00 0.00 63 1013.1
20260905033046 77 170 0.0 0.0 0.00 0.00 0.00 63 1013.1
20260905032548 77 170 0.0 0.0 0.00 0.00 0.00 63 1013.1
20260905032045 77 170 0.0 0.0 0.00 0.00 0.00 63 1013.0
20260905031549 78 170 0.0 0.0 0.00 0.00 0.00 63 1013.0
20260905031044 78 171 0.0 0.0 0.00 0.00 0.00 63 1013.0
20260905030545 78 171 0.0 0.0 0.00 0.00 0.00 63 1013.0
20260905030046 78 171 0.0 0.0 0.00 0.00 0.00 63 1013.0
20260905025544 78 152 0.0 0.0 0.00 0.00 0.00 63 1013.0
20260905025044 78 152 0.0 0.0 0.00 0.00 0.00 63 1013.1
20260905024555 79 151 0.0 0.0 0.00 0.00 0.00 63 1013.0
20260905024044 79 151 0.0 0.0 0.00 0.00 0.00 63 1013.0
20260905023544 79 152 0.0 0.0 0.00 0.00 0.00 63 1012.9
20260905023044 79 152 0.0 0.0 0.00 0.00 0.00 62 1012.9
20260905022543 80 151 0.0 0.0 0.00 0.00 0.00 62 1012.9
20260905022043 80 151 0.0 0.0 0.00 0.00 0.00 62 1013.0
20260905021544 80 151 0.0 0.0 0.00 0.00 0.00 62 1012.9
20260905021043 80 151 0.0 0.0 0.00 0.00 0.00 61 1013.0
20260905020547 80 151 0.0 0.0 0.00 0.00 0.00 61 1012.9
20260905020052 81 151 0.0 0.0 0.00 0.00 0.00 61 1012.8
20260905015542 81 151 0.0 0.0 0.00 0.00 0.00 61 1012.8
20260905015043 81 151 0.0 0.0 0.00 0.00 0.00 61 1012.8
20260905014543 81 151 0.0 0.0 0.00 0.00 0.00 61 1012.7
20260905014044 81 151 0.0 0.0 0.00 0.00 0.00 61 1012.7
20260905013542 81 151 0.0 0.0 0.00 0.00 0.00 61 1012.6
20260905013042 81 151 0.0 0.0 0.00 0.00 0.00 61 1012.6
20260905012544 81 151 0.0 0.0 0.00 0.00 0.00 60 1012.5
20260905012042 82 151 0.0 0.0 0.00 0.00 0.00 60 1012.5
20260905011541 82 151 0.0 0.0 0.00 0.00 0.00 59 1012.4
20260905011045 82 151 0.0 0.0 0.00 0.00 0.00 59 1012.4
20260905010541 82 151 0.0 0.0 0.00 0.00 0.00 59 1012.4
20260905010043 82 151 0.0 0.0 0.00 0.00 0.00 60 1012.3
20260905005541 83 151 0.0 0.0 0.00 0.00 0.00 59 1012.3
20260905005042 84 151 0.0 0.0 0.00 0.00 0.00 59 1012.3
20260905004541 84 151 0.0 0.0 0.00 0.00 0.00 58 1012.2
20260905004040 84 151 0.0 0.0 0.00 0.00 0.00 56 1012.1
20260905003540 85 151 0.0 0.9 0.00 0.00 0.00 56 1012.1
20260905003041 86 151 0.0 0.9 0.00 0.00 0.00 55 1012.1
20260905002539 86 5 0.0 0.0 0.00 0.00 0.00 54 1012.1
20260905002039 87 5 0.0 0.0 0.00 0.00 0.00 53 1012.1
20260905001539 88 5 0.0 0.0 0.00 0.00 0.00 52 1012.2
20260905001041 88 5 0.0 0.0 0.00 0.00 0.00 51 1012.2
20260905000542 89 5 0.0 0.0 0.00 0.00 0.00 50 1012.2
20260905000039 89 5 0.0 0.0 0.00 0.00 0.00 50 1012.2
20260904235541 91 5 0.0 0.0 0.00 0.00 0.00 49 1012.2
20260904235038 91 5 0.0 0.0 0.00 0.00 0.00 46 1012.3
20260904234538 92 5 0.0 0.0 0.00 0.00 0.00 45 1012.3
20260904234038 92 5 0.0 0.0 0.00 0.00 0.00 44 1012.3
20260904233542 92 5 0.0 0.0 0.00 0.00 0.00 44 1012.3
20260904233038 92 5 0.0 0.0 0.00 0.00 0.00 43 1012.3
20260904232541 93 5 0.0 0.0 0.00 0.00 0.00 41 1012.2
20260904232037 93 5 0.0 0.0 0.00 0.00 0.00 41 1012.2
20260904231552 94 5 0.0 0.0 0.00 0.00 0.00 40 1012.1
20260904231037 95 5 0.0 0.0 0.00 0.00 0.00 37 1012.2
20260904230537 95 5 0.0 0.0 0.00 0.00 0.00 36 1012.2
20260904230037 95 5 0.0 0.0 0.00 0.00 0.00 36 1012.2
20260904225536 95 355 0.0 0.0 0.00 0.00 0.00 37 1012.3
20260904225039 95 355 0.0 0.0 0.00 0.00 0.00 38 1012.2
20260904224536 95 355 0.0 0.0 0.00 0.00 0.00 37 1012.2
20260904224037 95 355 0.0 0.0 0.00 0.00 0.00 37 1012.1
20260904223535 95 355 0.0 0.0 0.00 0.00 0.00 36 1012.2
20260904223038 96 336 0.0 0.0 0.00 0.00 0.00 37 1012.2
20260904222540 96 355 0.0 0.0 0.00 0.00 0.00 37 1012.2
20260904222035 96 9 0.0 0.0 0.00 0.00 0.00 36 1012.2
20260904221539 96 360 0.0 0.0 0.00 0.00 0.00 35 1012.2
20260904221035 96 5 0.0 0.0 0.00 0.00 0.00 35 1012.2
20260904220535 97 360 0.0 0.0 0.00 0.00 0.00 34 1012.2
20260904220036 97 5 0.0 0.0 0.00 0.00 0.00 33 1012.2
20260904215535 98 20 0.0 0.0 0.00 0.00 0.00 33 1012.1
20260904215034 97 341 0.0 0.0 0.00 0.00 0.00 33 1012.2
20260904214535 97 341 0.0 0.0 0.00 0.00 0.00 33 1012.1
20260904214034 97 319 0.0 0.0 0.00 0.00 0.00 34 1012.2
20260904213534 98 345 0.0 0.0 0.00 0.00 0.00 35 1012.2
20260904213033 97 298 0.0 0.0 0.00 0.00 0.00 33 1012.1
20260904212532 97 314 0.0 0.0 0.00 0.00 0.00 33 1012.2
20260904212031 97 360 0.0 0.0 0.00 0.00 0.00 32 1012.3
20260904211531 97 9 0.0 0.0 0.00 0.00 0.00 33 1012.4
20260904211035 97 298 0.0 0.0 0.00 0.00 0.00 33 1012.4
20260904210531 97 328 0.0 0.0 0.00 0.00 0.00 32 1012.4
20260904210034 96 294 0.0 0.0 0.00 0.00 0.00 33 1012.4
20260904205530 96 281 0.0 0.0 0.00 0.00 0.00 33 1012.4
20260904205029 97 289 0.0 0.0 0.00 0.00 0.00 36 1012.5
20260904204531 96 286 0.0 0.0 0.00 0.00 0.00 34 1012.6
20260904204028 97 342 0.0 0.0 0.00 0.00 0.00 35 1012.6
20260904203528 97 284 0.0 0.0 0.00 0.00 0.00 33 1012.7
20260904203030 98 298 0.0 0.0 0.00 0.00 0.00 33 1012.8
20260904202526 96 294 0.0 0.0 0.00 0.00 0.00 33 1012.9
20260904202027 97 345 0.0 0.0 0.00 0.00 0.00 33 1012.9
20260904201525 98 348 0.0 0.0 0.00 0.00 0.00 34 1013.0
20260904201025 97 301 0.0 0.0 0.00 0.00 0.00 36 1013.0
20260904200527 97 296 0.0 0.0 0.00 0.00 0.00 34 1013.0
20260904200035 97 329 0.0 0.0 0.00 0.00 0.00 34 1013.1
20260904195523 98 5 0.0 0.0 0.00 0.00 0.00 32 1013.2
20260904195024 99 9 0.0 0.0 0.00 0.00 0.00 33 1013.4
20260904194521 97 40 0.0 0.0 0.00 0.00 0.00 35 1013.4
20260904194020 96 9 0.0 0.0 0.00 0.00 0.00 36 1013.5
20260904193522 95 355 0.0 0.0 0.00 0.00 0.00 38 1013.7
20260904193020 95 9 0.0 0.0 0.00 0.00 0.00 36 1013.7
20260904192518 96 342 0.0 0.0 0.00 0.00 0.00 36 1013.8
20260904192018 96 355 0.0 0.0 0.00 0.00 0.00 36 1013.9
20260904191518 97 348 0.0 0.0 0.00 0.00 0.00 35 1014.0
20260904191018 97 355 0.0 0.0 0.00 0.00 0.00 36 1014.1
20260904190618 95 327 0.0 0.0 0.00 0.00 0.00 36 1014.1
20260904190017 95 327 0.0 0.0 0.00 0.00 0.00 38 1014.2
20260904185517 94 350 0.0 0.0 0.00 0.00 0.00 38 1014.3
20260904185017 94 342 0.0 0.0 0.00 0.00 0.00 36 1014.4
20260904184517 95 331 0.0 0.0 0.00 0.00 0.00 36 1014.3
20260904184017 95 355 0.0 0.0 0.00 0.00 0.00 37 1014.4
20260904183517 95 18 0.0 0.0 0.00 0.00 0.00 36 1014.4
20260904183017 95 343 0.0 0.0 0.00 0.00 0.00 38 1014.5
20260904182521 96 315 0.0 0.0 0.00 0.00 0.00 36 1014.5
20260904182016 95 345 0.0 0.0 0.00 0.00 0.00 36 1014.6
20260904181516 95 337 0.0 0.0 0.00 0.00 0.00 36 1014.5
20260904181016 96 280 0.0 0.9 0.00 0.00 0.00 35 1014.6
20260904180519 97 246 0.0 0.0 0.00 0.00 0.00 34 1014.6
20260904180015 96 10 0.0 1.7 0.00 0.00 0.00 34 1014.7
20260904175516 97 249 0.0 1.7 0.00 0.00 0.00 35 1014.7
20260904175013 96 281 0.0 0.0 0.00 0.00 0.00 36 1014.8
20260904174516 95 285 0.0 0.0 0.00 0.00 0.00 36 1014.9
20260904174013 96 308 0.0 0.0 0.00 0.00 0.00 35 1014.9
20260904173517 95 298 0.0 0.0 0.00 0.00 0.00 36 1015.0
20260904173015 96 313 0.0 0.0 0.00 0.00 0.00 35 1014.9
20260904172511 95 350 0.0 0.0 0.00 0.00 0.00 37 1014.8
20260904172011 95 306 0.0 0.0 0.00 0.00 0.00 36 1015.0
20260904171510 95 315 0.0 0.0 0.00 0.00 0.00 37 1015.0
20260904171010 95 327 0.0 0.0 0.00 0.00 0.00 36 1015.0
20260904170509 95 338 0.0 0.0 0.00 0.00 0.00 36 1015.1
20260904170009 94 326 0.0 0.0 0.00 0.00 0.00 37 1015.1
20260904165509 94 312 0.0 0.0 0.00 0.00 0.00 37 1015.1
20260904165009 94 355 0.0 0.0 0.00 0.00 0.00 37 1015.2
20260904164508 94 291 0.0 0.0 0.00 0.00 0.00 38 1015.3
20260904164009 94 284 0.0 0.0 0.00 0.00 0.00 38 1015.3
20260904163508 94 284 0.0 0.0 0.00 0.00 0.00 38 1015.3
20260904163015 94 348 0.0 0.0 0.00 0.00 0.00 38 1015.3
20260904162506 94 323 0.0 0.0 0.00 0.00 0.00 39 1015.2
20260904162006 94 348 0.0 0.0 0.00 0.00 0.00 40 1015.2
20260904161507 94 300 0.0 0.0 0.00 0.00 0.00 40 1015.2
20260904161005 94 306 0.0 0.0 0.00 0.00 0.00 40 1015.2
20260904160505 93 287 0.0 0.0 0.00 0.00 0.00 43 1015.2
20260904160008 93 285 0.0 0.0 0.00 0.00 0.00 41 1015.2
20260904155504 93 289 0.0 0.0 0.00 0.00 0.00 40 1015.3
20260904155004 93 300 0.0 0.0 0.00 0.00 0.00 40 1015.3